Location: Ciserano
(45.5833°N, 9.6000°E)
Time: 12:57:28
(UTC+00:00)

SL-24 DEB - Pass Details

Date: 29 November 2020
Orbit: 664 x 701 km, 92.0° (Epoch: 25 January)

Event Time Altitude Azimuth Distance (km) Brightness Sun altitude
Rises 05:35:34 0° 180° (S) 3,058 7.9 -10.9°
Reaches altitude 10° 05:37:50 10° 183° (S) 2,150 7.1 -10.6°
Maximum altitude 05:42:34 69° 266° (W) 753 4.3 -9.8°
Drops below altitude 10° 05:47:22 10° 351° (N) 2,177 6.6 -9.0°
Sets 05:49:40 0° 354° (N) 3,100 7.4 -8.6°
